Update:The SFERA microsatellite re-entered the Earths atmosphere on the 24th November, 2012 @ 08:20 GMT ± 20 minutes.
Inclination: 51.63° Revolution Number: 1498Predicted Location: 47.5°S, 84°E
The SFERA microsatellite that was launched on the 20th November, 1998, from the Baikonur Cosmodrome, Kazakhstan, is predicted to re-enter the Earths atmosphere on the 24th November, 2012 @ 03:00 GMT ± 24 hours.
SFERA 1 38751U 98067CM 12327.63999705 .02698681 17401-1 26677-2 0 1656 2 38751 051.6251 041.2539 0011113 355.4068 004.4222 16.14820918 14726
Period: 89.6 minutesInclination: 51.63° Apogee: 262 kmPerigee: 248 kmRevolution Number: 1496Predicted Location: 15.1°N, 60.6°W